Location: *
(40.4000°N, 15.1200°E)
Time: 18:53:49
(UTC+00:00)

ERS-1 Rocket - Pass Details

Date: 09 April 2020
Orbit: 754 x 757 km, 98.5° (Epoch: 05 June)

Event Time Altitude Azimuth Distance (km) Brightness Sun altitude
Exits shadow 20:46:59 42° 338° (NNW) 1,080 4.0 -32.6°
Drops below altitude 10° 20:50:16 10° 345° (NNW) 2,288 6.2 -33.0°
Sets 20:52:34 0° 346° (NNW) 3,217 7.1 -33.3°
